Weather History for Rochelle, IL

Change the Weather History Date:

Friday, November 23, 2012

  Actual Average (KRFD) Record (KRFD)
Temperature  
Mean Temperature 32 °F 35 °F  
Max Temperature 37 °F 43 °F 65 °F (1931)
Min Temperature 26 °F 27 °F 0 °F (1950)
Degree Days  
Heating Degree Days 34 30  
Month to date heating degree days 558  
Since 1 July heating degree days 1111  
Cooling Degree Days 0 0  
Month to date cooling degree days 0  
Year to date cooling degree days 820  
Moisture  
Dew Point 21 °F    
Average Humidity 69    
Maximum Humidity 88    
Minimum Humidity 60    
Precipitation  
Precipitation 0.00 in 0.09 in 0.80 in (1983)
Month to date precipitation 2.01  
Year to date precipitation 33.69  
Snow  
Snow 0.00 in 0.10 in 3.00 in (1941)
Month to date snowfall 0.8  
Since 1 July snowfall 0.9  
Since 1 September snowfall 0.9  
Snow Depth -    
Sea Level Pressure  
Sea Level Pressure 30.10 in    
Wind  
Wind Speed 20 mph (WNW)    
Max Wind Speed 34 mph    
Max Gust Speed 41 mph    
Visibility 10 miles    
Events      
T = Trace of Precipitation, MM = Missing Value Source: NWS Daily Summary

Daily Weather History Graph

Daily Weather History Graph

Search for Another Location

Airport:

Trip Planner

Search our weather history database for the weather conditions in past years. The results will help you decide how hot, cold, wet, or windy it might be!

Date:

Astronomy

Nov. 23, 2012 Rise Set
Actual Time 6:56 AM CST 4:29 PM CST
Civil Twilight 6:25 AM CST 4:59 PM CST
Nautical Twilight 5:51 AM CST 5:34 PM CST
Astronomical Twilight 5:17 AM CST 6:07 PM CST
Moon 1:47 PM CST (11/23) 2:11 AM CST (11/23)
Length of Visible Light 10h 34m
Length of Day
9h 33m
Waxing Gibbous, 80% of the Moon is Illuminated
Nov 23
Waxing Gibbous
Nov 28
Full
Dec 6
Last Quarter
Dec 13
New
Dec 19
First Quarter

Hourly Weather History & Observations

Time (CST) Temp. Windchill Dew Point Humidity Pressure Visibility Wind Dir Wind Speed Gust Speed Precip Events Conditions
12:15 AM 37.4 °F 26.9 °F 31.8 °F 80% 29.94 in 10.0 mi WNW 20.7 mph 26.5 mph N/A   Scattered Clouds
12:35 AM 36.5 °F 26.0 °F 31.6 °F 83% 29.94 in 10.0 mi West 19.6 mph - N/A   Clear
12:55 AM 36.1 °F 26.5 °F 31.5 °F 83% 29.94 in 10.0 mi West 16.1 mph - N/A   Clear
1:15 AM 36.3 °F 26.8 °F 31.5 °F 83% 29.94 in 10.0 mi West 16.1 mph - N/A   Clear
1:35 AM 36.0 °F 26.7 °F 31.1 °F 82% 29.94 in 10.0 mi West 15.0 mph - N/A   Clear
1:55 AM 36.3 °F 26.8 °F 30.7 °F 80% 29.94 in 10.0 mi West 16.1 mph 21.9 mph N/A   Clear
2:15 AM 35.6 °F 26.6 °F 30.6 °F 82% 29.94 in 10.0 mi West 13.8 mph - N/A   Clear
2:35 AM 35.4 °F 26.8 °F 30.4 °F 82% 29.94 in 10.0 mi West 12.7 mph - N/A   Clear
2:55 AM 34.7 °F 26.4 °F 30.7 °F 85% 29.94 in 10.0 mi WSW 11.5 mph - N/A   Scattered Clouds
3:15 AM 34.9 °F 24.2 °F 31.6 °F 88% 29.94 in 10.0 mi WSW 18.4 mph - N/A   Mostly Cloudy
3:35 AM 36.1 °F 26.2 °F 32.0 °F 85% 29.93 in 10.0 mi WSW 17.3 mph - N/A   Overcast
3:55 AM 36.0 °F 23.2 °F 27.9 °F 72% 29.93 in 10.0 mi West 28.8 mph 40.3 mph N/A   Overcast
4:15 AM 35.2 °F 22.5 °F 27.0 °F 72% 29.93 in 10.0 mi West 27.6 mph 33.4 mph N/A   Overcast
4:35 AM 34.9 °F 22.2 °F 25.7 °F 69% 29.94 in 10.0 mi West 26.5 mph 33.4 mph N/A   Overcast
4:55 AM 34.7 °F 21.3 °F 24.6 °F 67% 29.95 in 10.0 mi WNW 29.9 mph 38.0 mph N/A   Overcast
5:15 AM 33.8 °F 19.2 °F 23.9 °F 67% 29.95 in 10.0 mi WNW 34.5 mph 40.3 mph N/A   Overcast
5:35 AM 33.8 °F 21.3 °F 24.3 °F 68% 29.96 in 10.0 mi WNW 24.2 mph 35.7 mph N/A   Overcast
6:15 AM 32.9 °F 18.9 °F 23.9 °F 69% 29.96 in 10.0 mi West 29.9 mph 36.8 mph N/A   Overcast
6:35 AM 32.0 °F 18.4 °F 23.7 °F 71% 29.98 in 10.0 mi West 26.5 mph 34.5 mph N/A   Overcast
6:55 AM 30.9 °F 16.4 °F 21.9 °F 69% 30.00 in 10.0 mi West 28.8 mph 41.4 mph N/A   Overcast
7:15 AM 30.4 °F 15.7 °F 21.4 °F 69% 30.01 in 10.0 mi WNW 28.8 mph 39.1 mph N/A   Overcast
7:35 AM 28.9 °F 14.5 °F 19.2 °F 67% 30.02 in 10.0 mi WNW 25.3 mph 36.8 mph N/A   Overcast
7:55 AM 28.8 °F 15.2 °F 19.6 °F 69% 30.03 in 10.0 mi WNW 21.9 mph 28.8 mph N/A   Mostly Cloudy
8:15 AM 28.8 °F 16.2 °F 19.6 °F 69% 30.05 in 10.0 mi WNW 18.4 mph 27.6 mph N/A   Overcast
8:35 AM 29.7 °F 16.1 °F 19.0 °F 65% 30.05 in 10.0 mi WNW 23.0 mph 32.2 mph N/A   Mostly Cloudy
8:55 AM 28.8 °F 14.6 °F 19.9 °F 70% 30.06 in 10.0 mi WNW 24.2 mph 29.9 mph N/A   Overcast
9:15 AM 28.6 °F 13.8 °F 18.9 °F 67% 30.07 in 10.0 mi WNW 26.5 mph 34.5 mph N/A   Overcast
9:35 AM 28.8 °F 14.6 °F 18.9 °F 67% 30.09 in 10.0 mi WNW 24.2 mph 33.4 mph N/A   Overcast
9:55 AM 28.9 °F 14.0 °F 19.2 °F 67% 30.09 in 10.0 mi WNW 27.6 mph 34.5 mph N/A   Overcast
10:15 AM 28.2 °F 12.8 °F 17.6 °F 64% 30.11 in 10.0 mi WNW 28.8 mph 38.0 mph N/A   Overcast
10:35 AM 28.4 °F 14.4 °F 17.2 °F 63% 30.11 in 10.0 mi NW 23.0 mph 34.5 mph N/A   Overcast
11:15 AM 28.6 °F 14.1 °F 17.6 °F 64% 30.12 in 10.0 mi WNW 25.3 mph 32.2 mph N/A   Overcast
11:35 AM 29.1 °F 15.7 °F 18.0 °F 63% 30.12 in 10.0 mi NW 21.9 mph 31.1 mph N/A   Overcast
11:55 AM 29.1 °F 15.1 °F 18.3 °F 64% 30.12 in 10.0 mi WNW 24.2 mph 28.8 mph N/A   Overcast
12:15 PM 29.3 °F 16.6 °F 17.2 °F 61% 30.13 in 10.0 mi WNW 19.6 mph 33.4 mph N/A   Overcast
12:35 PM 29.8 °F 15.2 °F 18.0 °F 61% 30.13 in 10.0 mi WNW 27.6 mph 33.4 mph N/A   Overcast
12:55 PM 30.2 °F 15.9 °F 18.1 °F 61% 30.13 in 10.0 mi WNW 26.5 mph 31.1 mph N/A   Overcast
1:15 PM 30.0 °F 16.3 °F 18.5 °F 62% 30.13 in 10.0 mi West 24.2 mph 32.2 mph N/A   Mostly Cloudy
1:35 PM 30.6 °F 16.7 °F 18.0 °F 60% 30.14 in 10.0 mi WNW 25.3 mph 31.1 mph N/A   Mostly Cloudy
1:55 PM 29.8 °F 16.3 °F 17.4 °F 60% 30.14 in 10.0 mi WNW 23.0 mph 29.9 mph N/A   Mostly Cloudy
2:15 PM 29.3 °F 14.7 °F 17.6 °F 62% 30.16 in 10.0 mi WNW 26.5 mph 31.1 mph N/A   Overcast
2:35 PM 28.8 °F 15.2 °F 17.2 °F 62% 30.17 in 10.0 mi WNW 21.9 mph 28.8 mph N/A   Overcast
2:55 PM 29.3 °F 15.6 °F 17.2 °F 61% 30.17 in 10.0 mi WNW 23.0 mph 28.8 mph N/A   Overcast
3:15 PM 28.8 °F 15.2 °F 16.9 °F 61% 30.18 in 10.0 mi WNW 21.9 mph 29.9 mph N/A   Mostly Cloudy
3:35 PM 28.8 °F 15.5 °F 16.9 °F 61% 30.19 in 10.0 mi WNW 20.7 mph 25.3 mph N/A   Mostly Cloudy
3:55 PM 28.2 °F 16.3 °F 16.2 °F 61% 30.20 in 10.0 mi NW 16.1 mph 27.6 mph N/A   Scattered Clouds
4:15 PM 27.9 °F 16.3 °F 16.3 °F 62% 30.21 in 10.0 mi WNW 15.0 mph - N/A   Scattered Clouds
4:35 PM 27.5 °F 14.6 °F 16.2 °F 62% 30.21 in 10.0 mi NW 18.4 mph 25.3 mph N/A   Scattered Clouds
4:55 PM 27.0 °F 16.1 °F 16.3 °F 64% 30.22 in 10.0 mi NW 12.7 mph 20.7 mph N/A   Clear
5:15 PM 26.6 °F 14.7 °F 16.5 °F 66% 30.22 in 10.0 mi WNW 15.0 mph - N/A   Clear
5:35 PM 26.6 °F 13.8 °F 16.7 °F 66% 30.23 in 10.0 mi WNW 17.3 mph 21.9 mph N/A   Scattered Clouds
5:55 PM 26.6 °F 15.7 °F 16.7 °F 66% 30.23 in 10.0 mi NW 12.7 mph - N/A   Scattered Clouds
6:15 PM 26.6 °F 15.7 °F 17.2 °F 68% 30.24 in 10.0 mi WNW 12.7 mph - N/A   Mostly Cloudy
6:35 PM 27.0 °F 15.6 °F 17.4 °F 67% 30.24 in 10.0 mi WNW 13.8 mph - N/A   Overcast
6:55 PM 27.1 °F 17.5 °F 17.6 °F 67% 30.24 in 10.0 mi WNW 10.4 mph 18.4 mph N/A   Overcast
7:15 PM 27.1 °F 16.4 °F 17.6 °F 67% 30.24 in 10.0 mi NW 12.7 mph - N/A   Overcast
7:35 PM 27.1 °F 15.9 °F 17.6 °F 67% 30.24 in 10.0 mi NW 13.8 mph - N/A   Overcast
7:55 PM 27.3 °F 16.1 °F 18.0 °F 68% 30.24 in 10.0 mi NW 13.8 mph 19.6 mph N/A   Overcast
8:15 PM 27.3 °F 16.1 °F 18.3 °F 69% 30.23 in 10.0 mi NW 13.8 mph 18.4 mph N/A   Overcast
8:35 PM 27.3 °F 15.6 °F 18.0 °F 68% 30.23 in 10.0 mi NW 15.0 mph 21.9 mph N/A   Overcast
8:55 PM 27.3 °F 16.1 °F 18.3 °F 69% 30.23 in 10.0 mi NW 13.8 mph 19.6 mph N/A   Overcast
9:15 PM 27.1 °F 16.4 °F 18.3 °F 69% 30.23 in 10.0 mi NW 12.7 mph - N/A   Overcast
9:35 PM 27.3 °F 17.1 °F 18.3 °F 69% 30.23 in 10.0 mi NW 11.5 mph - N/A   Overcast
9:55 PM 27.3 °F 18.4 °F 18.1 °F 68% 30.23 in 10.0 mi NW 9.2 mph 23.0 mph N/A   Overcast
10:15 PM 27.1 °F 16.4 °F 18.5 °F 70% 30.23 in 10.0 mi NW 12.7 mph 17.3 mph N/A   Overcast
10:55 PM 27.3 °F 15.6 °F 18.3 °F 69% 30.23 in 10.0 mi NW 15.0 mph 21.9 mph N/A   Overcast
11:15 PM 26.6 °F 14.7 °F 17.6 °F 69% 30.23 in 10.0 mi NNW 15.0 mph - N/A   Overcast
11:35 PM 26.6 °F 14.3 °F 17.2 °F 68% 30.23 in 10.0 mi NNW 16.1 mph - N/A   Overcast
11:55 PM 26.6 °F 16.2 °F 17.8 °F 69% 30.23 in 10.0 mi NNW 11.5 mph - N/A   Overcast